Terug naar catalogus

STARLINK-11531

ActiefCommunicatieVLEO
NORAD 62841·PAYLOAD·🇺🇸 United States

Gelanceerd Jan 27, 2025 vanaf Cape Canaveral Space Force Station

Loading…

Volgende Passages (komende 24 uur)

TLE

VersSource: CelesTrak SupGP

Epoch: Sep 15, 2026, 03:48 UTC

1 62841C 25019N   26258.15881944 -.00082186  00000+0 -63805-3 0  2580
2 62841  43.0005 244.0755 0001414 262.4519 240.7487 15.70890098    11

Volg STARLINK-11531 in realtime met AllMySat

Download on the App Store